OPS 4682 DEB, 38457

Orbit data source: Space-Track

OPS 4682 DEB, 38457 is space debris in LEO originally from a launch on Sat, 03 Apr 1965 UTC launched from the Air Force Western Test Range (AFWTR). Debris objects in space refer to the collection of defunct objects orbiting the Earth. Examples of debris include non-operational satellites, rocket bodies, and fragments generated from explosions, collisions, or faulty payload assembly.

Loading next visibility...
Identifier
38457, 1965-027FN
Orbit
LEO
Country
Flag of USUS
Related business
Manufacturer
Unknown
Mission
Spacecraft
Bus & Motor
Unknown
Mass
Unknown
Launch date (UTC)
1965-04-03 (61 years ago)
Launch vehicle
Unknown
Launch site
Air Force Western Test Range (AFWTR)
Object type
Payload
Rocket body
Debris
Shape & HBR
Unknown shape, 0.1 m
Radar Cross Section
Medium (>0.1 m² and <1 m²)

Expand to show TLE details & history
Last TLE update: 3 days ago

TLE from 3 days ago
0 OPS 4682 DEB
1 38457U 65027FN  26148.34079296  .00000672  00000-0  22499-2 0  9991
2 38457  90.2292   1.8574 0032518  75.0962 285.3756 12.98531884609185
Epoch: 2026-05-28T08:10Z
TLE epoch observation values (Epoch: 2026-05-28T08:10:44.511Z)
Latitude
-0.00009°
Longitude
-6.71499°
Altitude
1,264.207 km
Speed
7.226 km/s
True Right ascension
00h 07m 25s
True Declination
0° 00' 00"
Sunlit
Object was in daylight at epoch
Visualization orbit readout
Latitude
Unknown
Longitude
Unknown
Altitude
Unknown
Speed
Unknown
Apparent Right ascension
Unknown
Apparent Declination
Unknown
Sunlit
N/A
Visualization observer readout
Local Sidereal Time
16:15:11
Azimuth
Unknown
Elevation
Unknown
Doppler factor
Unknown
Orbital elements
Apogee altitude
1,289.827 km
Perigee altitude
1,240.119 km
Semi-major axis
7,643.11 km
Eccentricity
0.00325
Inclination
90.2292°
RAAN
1.8574°
Arg. of periapsis
75.0962°
True anomaly
285.01592°
Mean anomaly
285.3756°
Eccentric anomaly
285.1958°
Mean motion
3.24816 °/min
Orbital period
110.83 mins
BSTAR
0.0022499
Loading maneuver chart data...
Computing Atmospheric mass density...
Loading historical data...
Loading historical data...
Loading historical data...
Loading historical data...
Loading historical data...
Loading historical data...
Loading historical data...

Documentation

Showing up to 5 results
|